Location: Champs
(48.8539°N, 2.6040°E)
Time: 17:03:41
(UTC+00:00)

Cosmos 2056 Rocket - Pass Details

Date: 31 May 2022
Orbit: 741 x 801 km, 74.0° (Epoch: 01 July)

Event Time Altitude Azimuth Distance (km) Brightness Sun altitude
Exits shadow 02:17:22 11° 182° (S) 2,233 5.4 -11.7°
Maximum altitude 02:22:17 54° 107° (ESE) 929 4.1 -11.3°
Drops below altitude 10° 02:27:27 10° 31° (NNE) 2,341 7.6 -10.7°
Sets 02:29:54 0° 27° (NNE) 3,283 8.7 -10.5°
